sat.trackr.live / text

‹ back to catalog

STARLINK-30141

NORAD 57620 · 2023-119U

PAYLOAD ACTIVE UNKNOWN

§ Identity

Operator
Country
US
Launch date
2023-08-11
Launch site
AFETR
Launch vehicle
Mass (kg)
RCS (m²)

Purposes: comms

External: N2YO · Heavens-Above · Gunter

§ Orbital elements

Epoch: 2026-09-19T19:06:00.217440Z

Period
94.27 min
Inclination
43.0026°
Eccentricity
0.0001447
Mean motion
15.27583067 rev/d
Perigee alt
482.0 km
Apogee alt
484.0 km
Semi-major
6,861.2 km
B*
3.5443e-5
RAAN
65.2651°
Arg perigee
263.2551°
Mean anomaly
96.8136°
Rev number
17,277

§ Raw data

STARLINK-301411 57620U 23119U   26262.79583585  .00000713  00000+0  35443-4 0  99972 57620  43.0026  65.2651 0001447 263.2551  96.8136 15.27583067172773

JSON: /api/v1/satellites/57620 · /tle

For live sub-satellite position, see the globe view (requires WebGL).

§ Visibility from observer

Set your observer location to see the next 7 days of passes ≥ 10°. The values pass through the URL so the page stays shareable.

No JS? Fill the form by hand. The geolocation button needs JavaScript.